Regional Weather Roundup
Issued by NWS

Home | Current Version | Previous Version | Graphics & Text | Print | Product List | Glossary On
Versions: 1 2 3 4 5 6 7 8 9 10 11 12 13 14 15 16 17 18 19 20 21 22 23 24 25 26 27 28 29 30 31 32 33 34 35 36 37 38 39 40 41 42 43 44 45 46 47 48 49 50
000
ASUS43 KLSX 010659
RWRMO

WEATHER SUMMARY FOR MISSOURI
NATIONAL WEATHER SERVICE SPRINGFIELD MO
200 AM CDT MON SEP 01 2014

NOTE: "FAIR" INDICATES FEW OR NO CLOUDS BELOW 12,000 FEET WITH NO
       SIGNIFICANT WEATHER AND/OR OBSTRUCTIONS TO VISIBILITY.
       CURRENT SKY AND/OR WEATHER CONDITIONS ARE NOT AVAILABLE FOR
       CHILLICOTHE AND FARMINGTON.

MOZ001>031-035>038-043-044-053-054-010800-
...NORTHERN AND WESTERN MISSOURI...

CITY           SKY/WX    TMP DP  RH WIND       PRES   REMARKS
KANSAS CTY INT RAIN      66  63  90 S17       29.86F
KANSAS C DTWN  TSTM      68  66  93 SE6       29.86F FOG
ST JOSEPH      LGT RAIN  67  65  93 S17       29.81F
CHILLICOTHE      N/A     68  66  93 S9        29.84F
KIRKSVILLE     LGT RAIN  69  67  93 SW7       29.84F

$$
MOZ066>068-077>081-088>096-101>105-010800-
...SOUTHWEST MISSOURI...

CITY           SKY/WX    TMP DP  RH WIND       PRES   REMARKS
SPRINGFIELD    MOCLDY    76  70  82 N7        29.93R
JOPLIN         MOCLDY    78  69  73 N6        29.90R

$$
MOZ032>034-039>042-045>050-055>058-069>072-010800-
...CENTRAL MISSOURI...

CITY           SKY/WX    TMP DP  RH WIND       PRES   REMARKS
COLUMBIA       LGT RAIN  70  65  84 W10G24    29.93R
JEFFERSON CITY CLOUDY    78  63  59 NW15G28   29.91R
ROLLA          MOCLDY    74  70  87 S9        29.92R
SEDALIA        LGT RAIN  68  65  90 NW9       29.92F
OSAGE BEACH    CLOUDY    77  70  78 CALM      29.91F

$$
MOZ051-052-059>065-010800-
...EAST CENTRAL MISSOURI...

CITY           SKY/WX    TMP DP  RH WIND       PRES   REMARKS
ST LOUIS INTL  PTCLDY    78  71  79 S9        29.90R
SPIRIT OF STL  CLEAR     75  71  87 SW3       29.88R
ST CHARLES     PTCLDY    76  71  85 SW6       29.88R

$$
MOZ072>076-082>087-097>100-106>115-010800-
...SOUTH CENTRAL AND SOUTHEAST MISSOURI...

CITY           SKY/WX    TMP DP  RH WIND       PRES   REMARKS
CAPE GIRARDEAU CLEAR     75  72  90 S8        29.95S
FARMINGTON     CLEAR     73  70  88 S9        29.95S
POPLAR BLUFF   MOCLDY    75  70  84 S7        29.94S
WEST PLAINS    PTCLDY    73  70  90 S7        29.95S

$$



USA.gov is the U.S. government's official web portal to all federal, state and local government web resources and services.